#timestamp,LO_Frequency,Hit 
1499583615.1,286047008.4,N
1499583635.9,286047010.7,N
1499583655.7,286047010.5,N
1499583675.5,286047009.1,N
1499583695.4,286047007.3,N
1499583715.2,286047008.2,N
1499583735.0,286047009.4,N
1499583735.9,286047009.4,N
1499583755.8,286047012.2,N
1499583775.6,286047012.0,N
1499583795.4,286047011.1,N
1499583815.3,286047011.5,N
1499583835.1,286047011.1,N
1499583836.0,286047011.1,N
1499583855.8,286047013.8,N
1499583875.7,286047012.8,N
1499583895.5,286047012.6,N
1499583915.3,286047012.7,N
1499583935.2,286047012.7,N
1499583955.9,286047013.9,N
1499583975.7,286047010.1,N
1499583995.6,286047010.4,N
1499584015.4,286047006.5,N
1499584035.2,286047008.2,N
1499584055.0,286047006.8,N
1499584056.0,286047006.8,N
1499584075.8,286047005.5,N
1499584095.6,286047005.8,N
1499584115.4,286047005.5,N
1499584135.3,286047001.4,N
1499584155.1,286047003.0,N
1499584175.8,286047004.5,N
1499584195.7,286047004.7,N
1499584215.5,286047004.9,N
1499584235.3,286047007.1,N
1499584255.2,286047004.9,N
1499584275.9,286047003.4,N
1499584295.7,286047004.2,N
1499584315.6,286047001.6,N
1499584335.4,286047001.4,N
1499584355.2,286047001.3,N
1499584375.1,286047002.2,N
1499584376.0,286047002.2,N
1499584395.8,286047004.0,N
1499584415.6,286047004.0,N
1499584435.5,286047004.3,N
1499584455.3,286047004.1,N
1499584475.1,286047005.6,N
1499584495.8,286047004.4,N
1499584515.7,286047004.1,N
1499584535.5,286047003.5,N
1499584555.3,286047004.3,N
1499584575.2,286047002.0,N
1499584595.9,286047000.3,N
1499584615.7,286046998.2,N
1499584635.6,286047000.7,N
1499584655.4,286047000.6,N
1499584675.2,286047001.2,N
1499584695.1,286046998.5,N
1499584696.0,286046998.5,N
1499584715.8,286046998.4,N
1499584735.6,286046998.5,N
1499584755.5,286046998.6,N
1499584775.3,286047000.7,N
1499584795.1,286046998.4,N
1499584815.9,286046999.6,N
1499584835.7,286046998.1,N
1499584855.5,286047001.1,N
1499584875.4,286046998.2,N
1499584895.2,286047000.6,N
1499584915.0,286047002.6,N
1499584915.9,286047002.6,N
1499584935.8,286047001.5,N
1499584955.6,286047003.0,N
1499584975.4,286047005.4,N
1499584995.2,286047003.2,N
1499585015.1,286047003.7,N
1499585016.0,286047003.7,N
1499585035.8,286047002.1,N
1499585055.6,286046998.5,N
1499585075.5,286046998.1,N
1499585095.3,286047000.9,N
1499585115.1,286047002.4,N
1499585135.9,286046998.6,N
1499585155.7,286046999.8,N
1499585175.5,286047003.6,N
1499585195.4,286047002.9,N
1499585215.2,286047005.8,N
1499585235.0,286047006.0,N
1499585235.9,286047006.0,N
1499585255.8,286047004.1,N
1499585275.6,286047003.9,N
1499585295.4,286047003.1,N
1499585315.3,286047003.6,N
1499585335.1,286047001.9,N
1499585336.0,286047001.9,N
1499585355.8,286047003.9,N
1499585375.7,286047000.4,N
1499585395.5,286046998.4,N
1499585415.3,286046997.8,N
1499585435.2,286046995.2,N
1499585455.9,286046998.0,N
1499585475.7,286046994.9,N
1499585495.5,286046995.9,N
1499585515.4,286046995.7,N
1499585535.2,286046992.3,N
1499585555.0,286046992.8,N
1499585555.9,286046992.8,N
1499585575.8,286046990.3,N
1499585595.6,286046990.9,N
1499585615.4,286046992.7,N
1499585635.3,286046993.1,N
1499585655.1,286046990.6,N
1499585656.0,286046990.6,N
1499585675.8,286046991.2,N
1499585695.7,286046988.5,N
1499585715.5,286046988.9,N
1499585735.3,286046991.1,N
1499585755.2,286046992.7,N
1499585775.9,286046991.6,N
1499585795.7,286046986.9,N
1499585815.6,286046987.7,N
1499585835.4,286046989.8,N
1499585855.2,286046989.3,N
1499585875.0,286046989.8,N
1499585876.0,286046989.8,N
1499585895.8,286046989.0,N
1499585915.6,286046989.9,N
1499585935.4,286046989.9,N
1499585955.3,286046987.1,N
1499585975.1,286046986.5,N
1499585995.8,286046986.0,N
1499586015.7,286046984.1,N
1499586035.5,286046988.4,N
1499586055.3,286046990.0,N
1499586075.2,286046989.8,N
1499586095.9,286046991.6,N
1499586115.7,286046993.1,N
1499586135.6,286046990.5,N
1499586155.4,286046991.3,N
1499586175.2,286046988.7,N
1499586195.0,286046988.7,N
1499586196.0,286046988.7,N
1499586215.8,286046987.5,N
1499586235.6,286046990.0,N
1499586255.4,286046990.0,N
1499586275.3,286046987.5,N
1499586295.1,286046985.7,N
1499586315.8,286046988.1,N
1499586335.7,286046987.7,N
1499586355.5,286046986.4,N
1499586375.3,286046982.1,N
1499586395.2,286046984.7,N
1499586415.9,286046983.3,N
1499586435.7,286046983.3,N
1499586455.6,286046984.8,N
1499586475.4,286046982.4,N
1499586495.2,286046982.9,N
1499586515.0,286046983.0,N
1499586516.0,286046983.0,N
1499586535.8,286046979.0,N
1499586555.6,286046979.7,N
1499586575.4,286046981.7,N
1499586595.3,286046979.0,N
1499586615.1,286046977.8,N
1499586635.8,286046975.8,N
1499586655.7,286046974.6,N
1499586675.5,286046976.6,N
1499586695.3,286046976.2,N
1499586715.2,286046978.3,N
1499586735.9,286046978.3,N
1499586755.7,286046977.3,N
1499586775.6,286046980.2,N
1499586795.4,286046977.3,N
1499586815.2,286046977.8,N
1499586835.1,286046979.5,N
1499586836.0,286046979.5,N
1499586855.8,286046980.4,N
1499586875.6,286046980.3,N
1499586895.5,286046978.9,N
1499586915.3,286046979.4,N
1499586935.1,286046978.9,N
1499586955.8,286046981.1,N
1499586975.7,286046982.3,N
1499586995.5,286046981.2,N
1499587015.3,286046981.4,N
1499587035.2,286046980.8,N
1499587055.0,286046981.4,N
1499587055.9,286046981.4,N
1499587075.7,286046981.4,N
1499587095.6,286046977.3,N
1499587115.4,286046977.7,N
1499587135.2,286046976.4,N
1499587155.1,286046975.6,N
1499587156.0,286046975.6,N
1499587175.8,286046972.7,N
1499587195.6,286046974.4,N
